[[{"header":{"parameterUnit":"m.s-1","parameterCategory":1,"la1":30.2991,"la2":30.254,"lo1":-89.0895,"lo2":-89.0444,"dy":0.0017,"dx":0.0017,"nx":28,"ny":28,"refTime":"2024-08-04T09:00:00:Z","depth":0,"parameterNumber":2,"parameterNumberName":"U-component_of_WINDS"},"data":[0,0,0,0,0,0,0,0,0,0,0,0,0,0,0,0,0,0,0,0,0,0,0,0,0,0,0,0,0,0,0,0,0,0,0,0,0,0,0,0,0,0,0,0,0,0,0,0,0,0,0,0,0,0,0,0,0,0,-2.5921,-2.5923,0,-2.6136,-2.6139,-2.6141,-2.6132,-2.6129,-2.6126,-2.6124,-2.6345,-2.6353,-2.6362,0,0,0,0,0,0,0,0,0,0,0,0,0,-2.5504,-2.5512,-2.5921,-2.5924,-2.5926,-2.6136,-2.6139,-2.6142,-2.6133,-2.6129,-2.6126,-2.6122,-2.6342,-2.6352,-2.6362,0,0,0,0,0,0,0,0,0,0,0,0,0,-2.5699,-2.5514,-2.592,-2.5947,-2.5952,-2.6135,-2.6139,-2.6142,-2.6134,-2.6129,-2.6125,-2.612,-2.6338,-2.6351,-2.6364,-2.6535,0,0,-2.6404,-2.6409,0,0,0,0,0,0,0,0,-2.5688,-2.5714,-2.5941,-2.5946,-2.5951,-2.6103,-2.6073,-2.6274,-2.6135,-2.6065,-2.6123,-2.6118,-2.6268,-2.6286,-2.6337,-2.6545,-2.6555,-2.6405,-2.6413,-2.6418,-2.6422,0,0,0,0,0,0,0,-2.5674,-2.5705,-2.6006,-2.5944,-2.595,-2.5949,-2.5972,-2.6111,-2.6189,-2.607,-2.607,-2.6096,-2.627,-2.6324,-2.6342,-2.6558,-2.6405,-2.6416,-2.6424,-2.6429,-2.692,-2.6924,0,0,0,0,0,0,-2.5655,-2.5693,-2.5999,-2.6012,-2.5805,-2.596,-2.5985,-2.6059,-2.6188,-2.6203,-2.6099,-2.6095,-2.6304,-2.6327,-2.635,-2.656,-2.6418,-2.6431,-2.6438,-2.6914,-2.6921,-2.6926,0,0,0,0,0,0,-2.5646,-2.5682,-2.599,-2.5853,-2.5892,-2.5972,-2.6054,-2.6065,-2.612,-2.6209,-2.6223,-2.6141,-2.6301,-2.6331,-2.6489,-2.6567,-2.6436,-2.6448,-2.6908,-2.6916,-2.6923,-2.698,0,0,0,0,0,0,-2.5634,-2.5679,-2.5744,-2.5855,-2.59,-2.6126,-2.6059,-2.6073,-2.6142,-2.6138,-2.6252,-2.6266,-2.63,-2.647,-2.6502,-2.6583,-2.6459,-2.6902,-2.6912,-2.6921,-2.6972,-2.6989,-2.7004,0,0,0,0,0,-2.5619,-2.5752,-2.5748,-2.5785,-2.5983,-2.6131,-2.6157,-2.6193,-2.6148,-2.6215,-2.6273,-2.6263,-2.6553,-2.6486,-2.6523,-2.6608,-2.6897,-2.6909,-2.692,-2.6965,-2.6986,-2.7003,0,0,0,0,0,0,-2.5648,-2.5766,-2.5763,-2.5936,-2.6023,-2.6129,-2.6214,-2.6214,-2.6316,-2.6308,-2.6348,-2.6374,-2.6533,-2.6586,-2.6509,-2.6781,-2.6719,-2.6739,-2.6741,-2.6761,-2.6777,-2.6761,-2.6469,0,0,0,0,0,-2.5675,-2.5785,-2.5882,-2.6025,-2.6069,-2.6134,-2.62,-2.622,-2.6313,-2.635,-2.6419,-2.651,-2.6621,-2.6694,-2.6802,-2.6979,-2.7005,-2.7056,-2.7072,-2.7085,-2.7101,-2.72,-2.7225,-2.6965,-2.6965,-2.6964,0,0,-2.5731,-2.5809,-2.5876,-2.6033,-2.6103,-2.6216,-2.6165,-2.6287,-2.6372,-2.6368,-2.6522,-2.6576,-2.668,-2.6849,-2.6927,-2.6898,-2.7179,-2.71,-2.7109,-2.7119,-2.7215,-2.7239,-2.7261,-2.6973,-2.6971,-2.697,0,0,-2.5891,-2.5961,-2.6088,-2.616,-2.6267,-2.6309,-2.634,-2.6447,-2.6482,-2.6637,-2.6637,-2.6739,-2.693,-2.7004,-2.7067,-2.7256,-2.7251,-2.729,-2.7374,-2.747,-2.7491,-2.7509,-2.7578,-2.7602,-2.7306,-2.7307,-2.7307,0,-2.5947,-2.6118,-2.6153,-2.6277,-2.6346,-2.6348,-2.6477,-2.6545,-2.6682,-2.673,-2.6696,-2.6937,-2.7007,-2.7194,-2.724,-2.7291,-2.7327,-2.7278,-2.7485,-2.7504,-2.7521,-2.7587,-2.7613,-2.7311,-2.731,-2.731,-2.731,0,-2.6182,-2.6301,-2.6391,-2.6523,-2.6603,-2.6728,-2.6783,-2.686,-2.6873,-2.692,-2.7078,-2.7162,-2.7287,-2.7333,-2.7347,-2.7522,-2.7501,-2.7476,-2.7415,-2.755,-2.7612,-2.7638,-2.7317,-2.7315,-2.7314,-2.7313,0,0,-2.6367,-2.6518,-2.6551,-2.6611,-2.673,-2.6823,-2.6949,-2.7071,-2.7137,-2.7231,-2.7338,-2.7501,-2.7478,-2.7549,-2.7572,-2.7656,-2.7802,-2.7621,-2.7624,-2.7652,-2.8002,-2.8021,-2.805,-2.7799,-2.7804,-2.7808,-2.7994,0,-2.654,-2.6764,-2.68,-2.6997,-2.7107,-2.7111,-2.7221,-2.7306,-2.7353,-2.7454,-2.7506,-2.7621,-2.7582,-2.7625,-2.7708,-2.7767,-2.7873,-2.7754,-2.79,-2.7905,-2.7875,-2.8082,-2.8103,-2.8274,-2.8018,-2.8022,-2.8025,0,-2.6772,-2.6873,-2.7081,-2.7186,-2.7234,-2.7332,-2.7448,-2.7544,-2.7641,-2.767,-2.775,-2.7763,-2.7895,-2.7827,-2.801,-2.7928,-2.799,-2.8027,-2.8035,-2.8051,-2.7974,-2.8105,-2.8329,-2.8355,-2.8064,-2.8061,-2.8058,0,-2.6887,-2.7075,-2.7225,-2.7276,-2.7402,-2.7471,-2.7527,-2.762,-2.7691,-2.7793,-2.784,-2.7955,-2.8018,-2.8108,-2.8151,-2.8098,-2.8332,-2.8267,-2.836,-2.8359,-2.8409,-2.8406,-2.8648,-2.8448,-2.8447,-2.8447,-2.8446,0,-2.7077,-2.7205,-2.7278,-2.737,-2.7513,-2.7554,-2.7694,-2.7748,-2.7831,-2.7933,-2.7943,-2.804,-2.8091,-2.8196,-2.8231,-2.8377,-2.8405,-2.8433,-2.8441,-2.8433,-2.8429,-2.8474,-2.8464,-2.8454,-2.8452,-2.8451,-2.8449,0,-2.723,-2.7284,-2.7447,-2.7554,-2.7583,-2.7684,-2.7775,-2.7865,-2.7912,-2.8042,-2.8075,-2.8148,-2.8271,-2.8324,-2.8475,-2.8499,-2.8667,-2.8666,-2.8634,-2.8637,-2.8727,-2.8718,-2.9007,-2.9048,-2.882,-2.8822,-2.8824,0,-2.7348,-2.7447,-2.7564,-2.7633,-2.7691,-2.7803,-2.7877,-2.7921,-2.7997,-2.8115,-2.8191,-2.8314,-2.8416,-2.8612,-2.868,-2.8796,-2.8798,-2.8891,-2.8815,-2.8804,-2.88,-2.8794,-2.8805,-2.8905,-2.8907,-2.8909,-2.8911,0,-2.7553,-2.7575,-2.768,-2.7797,-2.7884,-2.7977,-2.8068,-2.8125,-2.8183,-2.8268,-2.8395,-2.8473,-2.8628,-2.8751,-2.8871,-2.8929,-2.8931,-2.8934,-2.8962,-2.8955,-2.8933,-2.8947,-2.8673,-2.8927,-2.8926,-2.8925,-2.8924,-2.8923,-2.7693,-2.7781,-2.7877,-2.7995,-2.8068,-2.8153,-2.8243,-2.8301,-2.8407,-2.8537,-2.8557,-2.8692,-2.8788,-2.8949,-2.9012,-2.9119,-2.9095,-2.9135,-2.9145,-2.9155,-2.9161,-2.8915,-2.914,-2.914,-2.914,-2.9139,-2.9139,0,-2.7898,-2.7961,-2.8069,-2.8196,-2.8289,-2.8282,-2.8383,-2.8461,-2.858,-2.8669,-2.8769,-2.8915,-2.9034,-2.9111,-2.9231,-2.9302,-2.9306,-2.9332,-2.9328,-2.9342,-2.9174,-2.9139,-2.9327,-2.9327,-2.9327,-2.9327,-2.9327,-2.9327,-2.8016,-2.8165,-2.8199,-2.8385,-2.8446,-2.8579,-2.8637,-2.8716,-2.8788,-2.895,-2.905,-2.9099,-2.9184,-2.931,-2.942,-2.9439,-2.9484,-2.9512,-2.953,-2.9373,-2.9353,-2.9334,-2.9301,-2.9521,-2.9521,-2.9689,-2.969,-2.9691]},{"header":{"parameterUnit":"m.s-1","parameterCategory":1,"la1":30.2991,"la2":30.254,"lo1":-89.0895,"lo2":-89.0444,"dy":0.0017,"dx":0.0017,"nx":28,"ny":28,"refTime":"2024-08-04T09:00:00:Z","depth":0,"parameterNumber":3,"parameterNumberName":"V-component_of_WINDS"},"data":[0,0,0,0,0,0,0,0,0,0,0,0,0,0,0,0,0,0,0,0,0,0,0,0,0,0,0,0,0,0,0,0,0,0,0,0,0,0,0,0,0,0,0,0,0,0,0,0,0,0,0,0,0,0,0,0,0,0,-2.4802,-2.4803,0,-2.4912,-2.4914,-2.4915,-2.4893,-2.4891,-2.4889,-2.4887,-2.5006,-2.5011,-2.5016,0,0,0,0,0,0,0,0,0,0,0,0,0,-2.4579,-2.4583,-2.4802,-2.4803,-2.4805,-2.4912,-2.4914,-2.4915,-2.4894,-2.4891,-2.4889,-2.4886,-2.5005,-2.5011,-2.5017,0,0,0,0,0,0,0,0,0,0,0,0,0,-2.4681,-2.4584,-2.4802,-2.4807,-2.4808,-2.4912,-2.4914,-2.4916,-2.4894,-2.4891,-2.4888,-2.4885,-2.5003,-2.501,-2.5018,-2.5125,0,0,-2.5041,-2.5044,0,0,0,0,0,0,0,0,-2.4675,-2.4689,-2.4805,-2.4807,-2.4809,-2.4886,-2.4879,-2.4986,-2.4895,-2.4862,-2.4887,-2.4884,-2.4969,-2.4979,-2.5007,-2.513,-2.5136,-2.5041,-2.5046,-2.5049,-2.5051,0,0,0,0,0,0,0,-2.4668,-2.4685,-2.4846,-2.4806,-2.4809,-2.4806,-2.4817,-2.4899,-2.4931,-2.4864,-2.4863,-2.4876,-2.497,-2.5,-2.5009,-2.5137,-2.5041,-2.5048,-2.5053,-2.5056,-2.5356,-2.5359,0,0,0,0,0,0,-2.4659,-2.4679,-2.4842,-2.4849,-2.4733,-2.4812,-2.4825,-2.4864,-2.493,-2.4937,-2.4879,-2.4875,-2.4988,-2.5001,-2.5014,-2.5144,-2.5049,-2.5056,-2.5061,-2.5353,-2.5357,-2.5361,0,0,0,0,0,0,-2.4654,-2.4673,-2.4838,-2.4764,-2.4784,-2.4819,-2.4864,-2.4868,-2.4898,-2.4941,-2.4947,-2.4903,-2.4986,-2.5003,-2.5097,-2.5148,-2.506,-2.5067,-2.5349,-2.5354,-2.5359,-2.5406,0,0,0,0,0,0,-2.4648,-2.4672,-2.4711,-2.4765,-2.4788,-2.4918,-2.4867,-2.4872,-2.491,-2.4906,-2.4965,-2.4972,-2.4985,-2.5086,-2.5105,-2.5157,-2.5072,-2.5344,-2.5351,-2.5357,-2.54,-2.5412,-2.5423,0,0,0,0,0,-2.464,-2.4722,-2.4714,-2.4733,-2.4838,-2.4921,-2.4935,-2.4946,-2.4914,-2.4956,-2.4983,-2.497,-2.5139,-2.5096,-2.5117,-2.5172,-2.5341,-2.5349,-2.5357,-2.5395,-2.541,-2.5423,0,0,0,0,0,0,-2.4675,-2.4729,-2.472,-2.4821,-2.4867,-2.4917,-2.4969,-2.4961,-2.5018,-2.5012,-2.5026,-2.5039,-2.5135,-2.5163,-2.5114,-2.528,-2.5236,-2.5248,-2.5258,-2.5273,-2.5284,-2.5276,-2.5079,0,0,0,0,0,-2.4695,-2.4755,-2.4799,-2.4884,-2.4907,-2.4934,-2.4971,-2.4976,-2.5024,-2.5043,-2.5078,-2.5127,-2.5191,-2.5234,-2.5295,-2.5404,-2.5418,-2.5453,-2.5464,-2.5473,-2.5484,-2.5545,-2.5561,-2.5386,-2.5386,-2.5386,0,0,-2.4736,-2.4772,-2.481,-2.4893,-2.4928,-2.4993,-2.4951,-2.5021,-2.5069,-2.5055,-2.5145,-2.5173,-2.5229,-2.5331,-2.5378,-2.5357,-2.5535,-2.5483,-2.549,-2.5496,-2.5555,-2.5571,-2.5586,-2.5391,-2.539,-2.539,0,0,-2.4844,-2.4877,-2.4952,-2.4988,-2.5042,-2.5059,-2.5077,-2.5129,-2.5146,-2.5237,-2.5228,-2.5287,-2.5397,-2.5437,-2.5472,-2.5596,-2.5587,-2.5616,-2.5675,-2.5734,-2.5748,-2.5761,-2.5806,-2.5822,-2.5626,-2.5627,-2.5627,0,-2.4889,-2.4983,-2.4992,-2.5063,-2.51,-2.5088,-2.5165,-2.52,-2.5272,-2.5299,-2.5274,-2.5412,-2.5449,-2.5561,-2.5592,-2.562,-2.5643,-2.5609,-2.5745,-2.5758,-2.5769,-2.5813,-2.583,-2.563,-2.5629,-2.5629,-2.5629,0,-2.5037,-2.5103,-2.5157,-2.5225,-2.5268,-2.5342,-2.5363,-2.5407,-2.5408,-2.5429,-2.5523,-2.5566,-2.5637,-2.5664,-2.5666,-2.5777,-2.5762,-2.5741,-2.5698,-2.5789,-2.583,-2.5847,-2.5634,-2.5633,-2.5632,-2.5631,0,0,-2.5171,-2.5242,-2.5262,-2.5293,-2.5351,-2.5404,-2.5478,-2.5544,-2.5582,-2.5633,-2.5696,-2.579,-2.577,-2.581,-2.5817,-2.587,-2.5966,-2.5842,-2.5844,-2.5865,-2.6093,-2.6109,-2.6128,-2.596,-2.5963,-2.5966,-2.6089,0,-2.5285,-2.5413,-2.5423,-2.5539,-2.5601,-2.5591,-2.5656,-2.57,-2.5722,-2.5779,-2.5804,-2.587,-2.5839,-2.5864,-2.5915,-2.5944,-2.6013,-2.5935,-2.6022,-2.6025,-2.6009,-2.6149,-2.6167,-2.628,-2.6105,-2.6107,-2.6109,0,-2.5435,-2.5488,-2.561,-2.566,-2.5687,-2.5745,-2.5807,-2.5862,-2.5912,-2.5925,-2.5969,-2.5969,-2.6048,-2.6,-2.611,-2.6057,-2.6093,-2.6113,-2.6118,-2.6127,-2.6073,-2.6164,-2.6317,-2.6334,-2.6135,-2.6133,-2.6131,0,-2.5521,-2.5623,-2.571,-2.5737,-2.5797,-2.5839,-2.5866,-2.5914,-2.5954,-2.6009,-2.6036,-2.61,-2.6136,-2.6187,-2.6206,-2.6169,-2.6315,-2.6269,-2.6329,-2.6329,-2.6361,-2.6359,-2.6523,-2.6383,-2.6383,-2.6382,-2.6382,0,-2.5648,-2.5724,-2.575,-2.5803,-2.5888,-2.5899,-2.5984,-2.601,-2.6052,-2.6112,-2.6108,-2.6164,-2.6185,-2.6245,-2.6261,-2.635,-2.6366,-2.638,-2.6383,-2.6381,-2.6379,-2.6405,-2.6398,-2.6387,-2.6386,-2.6385,-2.6384,0,-2.576,-2.578,-2.5873,-2.5923,-2.5937,-2.5998,-2.6041,-2.6094,-2.6114,-2.619,-2.6209,-2.6242,-2.6313,-2.6337,-2.6423,-2.6434,-2.6538,-2.6534,-2.6521,-2.6521,-2.6581,-2.6575,-2.6768,-2.6795,-2.6636,-2.6638,-2.6639,0,-2.584,-2.5897,-2.5953,-2.5991,-2.602,-2.6083,-2.6123,-2.6137,-2.618,-2.6242,-2.6288,-2.6358,-2.6415,-2.653,-2.6563,-2.663,-2.6628,-2.6691,-2.6639,-2.6635,-2.6631,-2.6628,-2.6634,-2.6702,-2.6703,-2.6705,-2.6706,0,-2.598,-2.5987,-2.6044,-2.6105,-2.6153,-2.6203,-2.625,-2.6283,-2.6304,-2.6353,-2.6425,-2.6469,-2.6557,-2.6627,-2.6695,-2.6726,-2.6721,-2.6722,-2.674,-2.6738,-2.6728,-2.6736,-2.6549,-2.6718,-2.6716,-2.6716,-2.6715,-2.6714,-2.6079,-2.613,-2.6177,-2.6241,-2.6278,-2.6323,-2.6375,-2.6401,-2.6461,-2.6532,-2.6537,-2.6616,-2.6667,-2.6757,-2.6791,-2.6854,-2.6837,-2.6862,-2.6869,-2.6875,-2.688,-2.6717,-2.6867,-2.6866,-2.6866,-2.6866,-2.6866,0,-2.622,-2.6249,-2.6308,-2.6374,-2.6426,-2.6413,-2.6466,-2.651,-2.6578,-2.6625,-2.668,-2.6764,-2.6833,-2.6871,-2.694,-2.6983,-2.6983,-2.7001,-2.6999,-2.7006,-2.6891,-2.687,-2.7001,-2.7,-2.7,-2.7,-2.7,-2.7,-2.6299,-2.6385,-2.6398,-2.6503,-2.6533,-2.6608,-2.6639,-2.6681,-2.6718,-2.6811,-2.6867,-2.6891,-2.6935,-2.7008,-2.7071,-2.708,-2.7107,-2.7127,-2.7136,-2.7028,-2.7014,-2.7001,-2.6981,-2.7133,-2.7133,-2.7246,-2.7247,-2.7247]}]]